JST594 YSSY-YMML

Flight info

Callsign JST594
Flight time 1h 12m
Altitude 32000
Route WOL2 WOL H65 LEECE Q29 ML DCT
Aircraft A320/M-VGDW/C

Departure

Time 2026-04-30 09:07
Airport Sydney Kingsford Smith International Airport (YSSY)

Arrival

Time 2026-04-30 10:19
Airport Melbourne Airport (YMML)
Time Latitude Longitude Altitude Speed Heading
2026-04-30 08:29 -33.93557 151.18010 30 ft 0 kts 278°
2026-04-30 08:44 -33.93559 151.18021 30 ft 3 kts 279°
2026-04-30 08:44 -33.93562 151.18045 30 ft 3 kts 284°
2026-04-30 08:45 -33.93567 151.18068 30 ft 3 kts 265°
2026-04-30 08:45 -33.93563 151.18081 30 ft 0 kts 218°
2026-04-30 08:50 -33.93569 151.18076 30 ft 3 kts 215°
2026-04-30 08:50 -33.93618 151.18058 30 ft 12 kts 185°
2026-04-30 08:50 -33.93680 151.18059 30 ft 6 kts 178°
2026-04-30 08:50 -33.93729 151.18077 30 ft 6 kts 160°
2026-04-30 08:51 -33.93772 151.18066 30 ft 7 kts 243°
2026-04-30 08:51 -33.93790 151.17994 30 ft 11 kts 253°
2026-04-30 08:51 -33.93818 151.17880 25 ft 15 kts 254°
2026-04-30 08:51 -33.93832 151.17807 22 ft 3 kts 259°
2026-04-30 08:52 -33.93846 151.17755 20 ft 10 kts 249°
2026-04-30 08:52 -33.93878 151.17658 18 ft 14 kts 243°
2026-04-30 08:52 -33.93964 151.17628 19 ft 15 kts 165°
2026-04-30 08:52 -33.94067 151.17659 22 ft 16 kts 170°
2026-04-30 08:53 -33.94184 151.17696 22 ft 19 kts 164°
2026-04-30 08:53 -33.94314 151.17737 21 ft 20 kts 167°
2026-04-30 08:53 -33.94432 151.17768 24 ft 18 kts 163°
2026-04-30 08:53 -33.94522 151.17867 22 ft 18 kts 139°
2026-04-30 08:54 -33.94634 151.17911 25 ft 17 kts 167°
2026-04-30 08:54 -33.94765 151.17947 21 ft 21 kts 167°
2026-04-30 08:54 -33.94916 151.17985 21 ft 21 kts 170°
2026-04-30 08:54 -33.95041 151.18016 27 ft 16 kts 167°
2026-04-30 08:55 -33.95096 151.18117 25 ft 17 kts 81°
2026-04-30 08:55 -33.95071 151.18265 24 ft 19 kts 78°
2026-04-30 08:55 -33.95053 151.18375 25 ft 8 kts 81°
2026-04-30 08:55 -33.95047 151.18420 28 ft 0 kts 78°
2026-04-30 08:57 -33.95046 151.18421 28 ft 0 kts 78°
2026-04-30 08:57 -33.95044 151.18436 28 ft 3 kts 77°
2026-04-30 08:57 -33.95040 151.18471 26 ft 5 kts 88°
2026-04-30 08:57 -33.95064 151.18507 26 ft 7 kts 154°
2026-04-30 08:58 -33.95113 151.18548 26 ft 10 kts 139°
2026-04-30 08:58 -33.95178 151.18614 28 ft 14 kts 140°
2026-04-30 08:58 -33.95262 151.18690 29 ft 15 kts 149°
2026-04-30 08:58 -33.95362 151.18735 24 ft 15 kts 166°
2026-04-30 08:59 -33.95480 151.18765 25 ft 19 kts 169°
2026-04-30 08:59 -33.95615 151.18802 26 ft 20 kts 166°
2026-04-30 08:59 -33.95759 151.18838 26 ft 22 kts 168°
2026-04-30 08:59 -33.95911 151.18880 27 ft 23 kts 171°
2026-04-30 09:00 -33.96076 151.18920 25 ft 26 kts 166°
2026-04-30 09:00 -33.96246 151.18966 27 ft 25 kts 168°
2026-04-30 09:00 -33.96308 151.18981 27 ft 0 kts 169°
2026-04-30 09:01 -33.96309 151.18981 27 ft 1 kts 169°
2026-04-30 09:01 -33.96331 151.18987 28 ft 6 kts 169°
2026-04-30 09:01 -33.96393 151.19002 23 ft 12 kts 168°
2026-04-30 09:01 -33.96499 151.19030 19 ft 18 kts 167°
2026-04-30 09:02 -33.96760 151.19075 19 ft 20 kts 186°
2026-04-30 09:02 -33.96897 151.19088 19 ft 18 kts 169°
2026-04-30 09:02 -33.97021 151.19119 23 ft 18 kts 167°
2026-04-30 09:03 -33.97126 151.19190 20 ft 18 kts 102°
2026-04-30 09:03 -33.97120 151.19278 23 ft 0 kts 78°
2026-04-30 09:05 -33.97117 151.19295 21 ft 4 kts 78°
2026-04-30 09:06 -33.97104 151.19351 22 ft 10 kts 68°
2026-04-30 09:06 -33.97027 151.19367 20 ft 16 kts 349°
2026-04-30 09:06 -33.96782 151.19305 17 ft 71 kts 348°
2026-04-30 09:06 -33.96034 151.19110 30 ft 145 kts 348°
2026-04-30 09:07 -33.94985 151.18824 684 ft 157 kts 350°
2026-04-30 09:07 -33.93854 151.18825 1319 ft 173 kts 30°
2026-04-30 09:07 -33.93172 151.19986 2090 ft 184 kts 82°
2026-04-30 09:07 -33.93348 151.21483 3224 ft 180 kts 100°
2026-04-30 09:08 -33.93641 151.23146 3476 ft 223 kts 97°
2026-04-30 09:08 -33.93816 151.25062 3595 ft 231 kts 91°
2026-04-30 09:08 -33.93853 151.27039 3739 ft 248 kts 87°
2026-04-30 09:08 -33.93810 151.29134 3933 ft 255 kts 86°
2026-04-30 09:09 -33.93736 151.31285 4459 ft 266 kts 86°
2026-04-30 09:09 -33.93650 151.33559 5266 ft 277 kts 86°
2026-04-30 09:09 -33.93566 151.35897 6060 ft 282 kts 86°
2026-04-30 09:09 -33.93484 151.38263 6877 ft 284 kts 87°
2026-04-30 09:10 -33.93404 151.40654 7652 ft 285 kts 86°
2026-04-30 09:10 -33.93326 151.43072 8452 ft 291 kts 86°
2026-04-30 09:10 -33.93244 151.45553 9264 ft 298 kts 86°
2026-04-30 09:10 -33.93165 151.48067 10100 ft 302 kts 86°
2026-04-30 09:11 -33.93288 151.50612 10863 ft 309 kts 103°
2026-04-30 09:11 -33.94212 151.52940 11629 ft 317 kts 127°
2026-04-30 09:11 -33.95882 151.54709 12424 ft 325 kts 150°
2026-04-30 09:11 -33.98036 151.55573 13240 ft 330 kts 173°
2026-04-30 09:12 -34.00322 151.55377 14063 ft 333 kts 196°
2026-04-30 09:12 -34.02390 151.54134 14831 ft 334 kts 219°
2026-04-30 09:12 -34.03905 151.52037 15594 ft 334 kts 242°
2026-04-30 09:12 -34.04660 151.49400 16376 ft 334 kts 261°
2026-04-30 09:13 -34.04921 151.46608 17174 ft 335 kts 266°
2026-04-30 09:13 -34.05062 151.43801 17993 ft 335 kts 267°
2026-04-30 09:13 -34.05175 151.41031 18809 ft 334 kts 267°
2026-04-30 09:13 -34.05378 151.38241 19540 ft 332 kts 259°
2026-04-30 09:14 -34.06069 151.35607 20296 ft 328 kts 243°
2026-04-30 09:14 -34.07245 151.33281 21071 ft 323 kts 232°
2026-04-30 09:14 -34.08191 151.31899 21594 ft 319 kts 227°
2026-04-30 09:14 -34.09728 151.29999 22397 ft 313 kts 222°
2026-04-30 09:15 -34.11832 151.27659 23502 ft 302 kts 220°
2026-04-30 09:15 -34.12858 151.26547 24051 ft 296 kts 220°
2026-04-30 09:15 -34.14377 151.24908 24651 ft 292 kts 220°
2026-04-30 09:15 -34.16386 151.22726 25164 ft 294 kts 220°
2026-04-30 09:16 -34.17414 151.21602 25432 ft 295 kts 221°
2026-04-30 09:16 -34.18919 151.19951 25812 ft 296 kts 220°
2026-04-30 09:16 -34.20448 151.18268 26184 ft 298 kts 220°
2026-04-30 09:16 -34.21987 151.16574 26548 ft 300 kts 220°
2026-04-30 09:17 -34.23536 151.14866 26918 ft 301 kts 220°
2026-04-30 09:17 -34.25096 151.13148 27273 ft 303 kts 220°
2026-04-30 09:17 -34.26677 151.11405 27468 ft 312 kts 220°
2026-04-30 09:17 -34.28300 151.09616 27638 ft 320 kts 220°
2026-04-30 09:18 -34.29981 151.07762 27737 ft 332 kts 220°
2026-04-30 09:18 -34.31717 151.05846 27835 ft 343 kts 220°
2026-04-30 09:18 -34.33486 151.03890 27940 ft 355 kts 220°
2026-04-30 09:18 -34.35340 151.01850 28040 ft 366 kts 221°
2026-04-30 09:19 -34.37242 150.99744 28231 ft 374 kts 221°
2026-04-30 09:19 -34.39183 150.97592 28410 ft 381 kts 221°
2026-04-30 09:19 -34.41161 150.95398 28598 ft 388 kts 221°
2026-04-30 09:19 -34.43165 150.93175 28786 ft 394 kts 221°
2026-04-30 09:20 -34.45204 150.90912 28974 ft 400 kts 221°
2026-04-30 09:20 -34.47270 150.88617 29171 ft 405 kts 221°
2026-04-30 09:20 -34.49361 150.86293 29421 ft 409 kts 221°
2026-04-30 09:20 -34.51471 150.83948 29666 ft 413 kts 221°
2026-04-30 09:21 -34.53596 150.81582 29915 ft 417 kts 221°
2026-04-30 09:21 -34.55677 150.79097 30164 ft 421 kts 227°
2026-04-30 09:21 -34.57492 150.76349 30411 ft 425 kts 233°
2026-04-30 09:21 -34.59254 150.73392 30646 ft 428 kts 232°
2026-04-30 09:22 -34.60999 150.70497 30858 ft 432 kts 232°
2026-04-30 09:22 -34.62783 150.67544 31071 ft 435 kts 232°
2026-04-30 09:22 -34.64571 150.64582 31287 ft 434 kts 232°
2026-04-30 09:22 -34.66355 150.61619 31509 ft 433 kts 232°
2026-04-30 09:23 -34.68136 150.58656 31735 ft 432 kts 232°
2026-04-30 09:23 -34.69912 150.55700 31955 ft 432 kts 232°
2026-04-30 09:23 -34.71683 150.52749 32178 ft 431 kts 232°
2026-04-30 09:23 -34.73452 150.49798 32374 ft 431 kts 232°
2026-04-30 09:24 -34.76987 150.43897 32439 ft 436 kts 233°
2026-04-30 09:24 -34.80602 150.37849 32444 ft 451 kts 233°
2026-04-30 09:25 -34.84345 150.31579 32438 ft 461 kts 233°
2026-04-30 09:25 -34.88106 150.25263 32443 ft 460 kts 233°
2026-04-30 09:26 -34.91865 150.18940 32441 ft 460 kts 233°
2026-04-30 09:26 -34.95596 150.12655 32439 ft 460 kts 233°
2026-04-30 09:27 -34.99349 150.06323 32445 ft 460 kts 234°
2026-04-30 09:27 -35.03098 149.99984 32439 ft 460 kts 234°
2026-04-30 09:28 -35.06844 149.93640 32440 ft 460 kts 234°
2026-04-30 09:28 -35.10584 149.87293 32441 ft 460 kts 234°
2026-04-30 09:29 -35.14297 149.80985 32440 ft 459 kts 234°
2026-04-30 09:29 -35.18027 149.74636 32437 ft 459 kts 234°
2026-04-30 09:30 -35.21733 149.68314 32439 ft 459 kts 234°
2026-04-30 09:30 -35.25449 149.61965 32441 ft 459 kts 234°
2026-04-30 09:31 -35.29163 149.55608 32432 ft 459 kts 234°
2026-04-30 09:31 -35.32874 149.49243 32429 ft 458 kts 234°
2026-04-30 09:32 -35.36579 149.42880 32430 ft 458 kts 234°
2026-04-30 09:32 -35.40257 149.36548 32425 ft 458 kts 234°
2026-04-30 09:33 -35.43954 149.30174 32421 ft 459 kts 235°
2026-04-30 09:33 -35.47657 149.23777 32426 ft 459 kts 235°
2026-04-30 09:34 -35.51352 149.17382 32424 ft 459 kts 235°
2026-04-30 09:34 -35.55022 149.11018 32435 ft 459 kts 235°
2026-04-30 09:35 -35.58719 149.04598 32452 ft 459 kts 235°
2026-04-30 09:35 -35.62410 148.98176 32451 ft 459 kts 236°
2026-04-30 09:36 -35.66070 148.91793 32465 ft 460 kts 236°
2026-04-30 09:36 -35.67913 148.88577 32322 ft 460 kts 236°
2026-04-30 09:36 -35.69750 148.85367 32072 ft 458 kts 236°
2026-04-30 09:37 -35.71579 148.82168 31837 ft 455 kts 236°
2026-04-30 09:37 -35.73395 148.78989 31595 ft 454 kts 236°
2026-04-30 09:37 -35.75210 148.75809 31352 ft 453 kts 236°
2026-04-30 09:37 -35.77020 148.72634 31122 ft 453 kts 236°
2026-04-30 09:38 -35.78830 148.69457 30920 ft 452 kts 236°
2026-04-30 09:38 -35.80634 148.66288 30682 ft 451 kts 236°
2026-04-30 09:38 -35.82433 148.63123 30431 ft 449 kts 236°
2026-04-30 09:38 -35.84222 148.59974 30154 ft 447 kts 236°
2026-04-30 09:39 -35.86001 148.56842 29874 ft 445 kts 237°
2026-04-30 09:39 -35.87748 148.53763 29604 ft 443 kts 237°
2026-04-30 09:39 -35.89512 148.50648 29335 ft 441 kts 237°
2026-04-30 09:39 -35.91263 148.47541 29066 ft 440 kts 237°
2026-04-30 09:40 -35.93009 148.44438 28795 ft 439 kts 237°
2026-04-30 09:40 -35.94746 148.41350 28537 ft 437 kts 237°
2026-04-30 09:40 -35.96481 148.38264 28275 ft 436 kts 237°
2026-04-30 09:40 -35.98205 148.35194 28008 ft 434 kts 237°
2026-04-30 09:41 -35.99924 148.32132 27753 ft 432 kts 237°
2026-04-30 09:41 -36.01613 148.29121 27502 ft 430 kts 237°
2026-04-30 09:41 -36.03334 148.26050 27250 ft 429 kts 237°
2026-04-30 09:41 -36.05008 148.23060 26992 ft 428 kts 237°
2026-04-30 09:42 -36.06697 148.20041 26754 ft 426 kts 237°
2026-04-30 09:42 -36.08382 148.17025 26508 ft 425 kts 238°
2026-04-30 09:42 -36.10061 148.14018 26259 ft 424 kts 238°
2026-04-30 09:42 -36.11737 148.11014 26012 ft 423 kts 238°
2026-04-30 09:43 -36.13391 148.08052 25772 ft 421 kts 237°
2026-04-30 09:43 -36.15057 148.05075 25558 ft 420 kts 237°
2026-04-30 09:43 -36.16719 148.02103 25454 ft 419 kts 237°
2026-04-30 09:43 -36.18377 147.99135 25418 ft 419 kts 237°
2026-04-30 09:44 -36.20039 147.96157 25419 ft 420 kts 237°
2026-04-30 09:44 -36.21701 147.93174 25421 ft 420 kts 237°
2026-04-30 09:44 -36.23359 147.90201 25411 ft 419 kts 238°
2026-04-30 09:44 -36.25015 147.87225 25409 ft 419 kts 238°
2026-04-30 09:45 -36.26668 147.84250 25416 ft 419 kts 238°
2026-04-30 09:45 -36.28323 147.81272 25409 ft 419 kts 238°
2026-04-30 09:45 -36.29975 147.78296 25409 ft 419 kts 238°
2026-04-30 09:45 -36.31631 147.75309 25409 ft 419 kts 238°
2026-04-30 09:46 -36.33284 147.72326 25409 ft 419 kts 238°
2026-04-30 09:46 -36.34915 147.69374 25410 ft 419 kts 238°
2026-04-30 09:46 -36.36566 147.66382 25409 ft 419 kts 238°
2026-04-30 09:46 -36.38211 147.63398 25409 ft 419 kts 238°
2026-04-30 09:47 -36.39857 147.60408 25411 ft 418 kts 238°
2026-04-30 09:47 -36.41504 147.57417 25407 ft 418 kts 238°
2026-04-30 09:47 -36.43143 147.54435 25410 ft 418 kts 238°
2026-04-30 09:47 -36.44785 147.51446 25412 ft 419 kts 238°
2026-04-30 09:48 -36.46405 147.48492 25403 ft 418 kts 238°
2026-04-30 09:48 -36.48048 147.45497 25403 ft 418 kts 238°
2026-04-30 09:48 -36.49689 147.42501 25408 ft 418 kts 238°
2026-04-30 09:48 -36.51331 147.39502 25410 ft 418 kts 239°
2026-04-30 09:49 -36.52972 147.36503 25399 ft 419 kts 239°
2026-04-30 09:49 -36.54586 147.33550 25413 ft 418 kts 239°
2026-04-30 09:49 -36.56218 147.30561 25408 ft 418 kts 239°
2026-04-30 09:49 -36.57851 147.27567 25414 ft 418 kts 239°
2026-04-30 09:50 -36.59486 147.24568 25408 ft 418 kts 239°
2026-04-30 09:50 -36.61121 147.21566 25407 ft 418 kts 239°
2026-04-30 09:50 -36.62755 147.18562 25409 ft 418 kts 239°
2026-04-30 09:50 -36.64388 147.15558 25407 ft 418 kts 239°
2026-04-30 09:51 -36.66018 147.12554 25405 ft 418 kts 239°
2026-04-30 09:51 -36.67623 147.09597 25411 ft 418 kts 239°
2026-04-30 09:51 -36.69251 147.06596 25402 ft 417 kts 239°
2026-04-30 09:51 -36.70878 147.03592 25411 ft 418 kts 239°
2026-04-30 09:52 -36.72503 147.00588 25405 ft 418 kts 239°
2026-04-30 09:52 -36.74127 146.97582 25407 ft 418 kts 239°
2026-04-30 09:52 -36.75750 146.94579 25407 ft 418 kts 239°
2026-04-30 09:52 -36.77378 146.91564 25407 ft 418 kts 239°
2026-04-30 09:53 -36.79000 146.88554 25404 ft 418 kts 239°
2026-04-30 09:53 -36.80623 146.85544 25414 ft 418 kts 240°
2026-04-30 09:53 -36.82241 146.82538 25403 ft 417 kts 240°
2026-04-30 09:53 -36.83842 146.79561 25397 ft 416 kts 240°
2026-04-30 09:54 -36.85452 146.76565 25403 ft 416 kts 240°
2026-04-30 09:54 -36.87064 146.73559 25400 ft 417 kts 240°
2026-04-30 09:54 -36.88680 146.70547 25399 ft 416 kts 240°
2026-04-30 09:54 -36.90293 146.67537 25402 ft 416 kts 240°
2026-04-30 09:55 -36.91910 146.64517 25397 ft 416 kts 240°
2026-04-30 09:55 -36.93522 146.61505 25396 ft 416 kts 240°
2026-04-30 09:55 -36.95113 146.58529 25392 ft 416 kts 240°
2026-04-30 09:55 -36.96740 146.55480 25295 ft 428 kts 240°
2026-04-30 09:56 -36.98427 146.52304 25060 ft 447 kts 240°
2026-04-30 09:56 -37.00171 146.49028 24815 ft 452 kts 240°
2026-04-30 09:56 -37.01910 146.45768 24600 ft 449 kts 240°
2026-04-30 09:56 -37.03641 146.42522 24370 ft 447 kts 240°
2026-04-30 09:57 -37.05365 146.39281 24148 ft 446 kts 240°
2026-04-30 09:57 -37.07085 146.36044 23932 ft 444 kts 240°
2026-04-30 09:57 -37.08765 146.32877 23665 ft 442 kts 240°
2026-04-30 09:57 -37.10467 146.29665 23384 ft 439 kts 240°
2026-04-30 09:58 -37.12144 146.26500 23120 ft 435 kts 240°
2026-04-30 09:58 -37.13818 146.23334 22861 ft 433 kts 240°
2026-04-30 09:58 -37.15461 146.20227 22589 ft 421 kts 240°
2026-04-30 09:58 -37.17059 146.17206 22328 ft 408 kts 240°
2026-04-30 09:59 -37.20101 146.11443 21823 ft 385 kts 241°
2026-04-30 09:59 -37.22991 146.05944 21305 ft 380 kts 241°
2026-04-30 10:00 -37.25900 146.00382 20826 ft 378 kts 240°
2026-04-30 10:00 -37.26859 145.98559 20660 ft 376 kts 240°
2026-04-30 10:01 -37.29743 145.93063 20177 ft 375 kts 240°
2026-04-30 10:01 -37.31179 145.90322 19910 ft 376 kts 241°
2026-04-30 10:01 -37.33089 145.86686 19410 ft 373 kts 241°
2026-04-30 10:02 -37.35451 145.82191 18786 ft 369 kts 241°
2026-04-30 10:02 -37.37340 145.78588 18242 ft 368 kts 241°
2026-04-30 10:02 -37.38270 145.76811 17959 ft 365 kts 240°
2026-04-30 10:02 -37.39655 145.74162 17541 ft 362 kts 240°
2026-04-30 10:03 -37.41037 145.71519 17135 ft 361 kts 240°
2026-04-30 10:03 -37.42410 145.68890 16727 ft 357 kts 240°
2026-04-30 10:03 -37.43771 145.66284 16317 ft 355 kts 240°
2026-04-30 10:03 -37.45127 145.63682 15853 ft 354 kts 240°
2026-04-30 10:04 -37.46524 145.61134 15372 ft 353 kts 237°
2026-04-30 10:04 -37.47975 145.58662 14890 ft 350 kts 237°
2026-04-30 10:04 -37.49424 145.56231 14406 ft 341 kts 236°
2026-04-30 10:04 -37.50824 145.53872 13913 ft 331 kts 237°
2026-04-30 10:05 -37.52182 145.51559 13385 ft 323 kts 237°
2026-04-30 10:05 -37.53503 145.49299 12878 ft 316 kts 237°
2026-04-30 10:05 -37.54785 145.47092 12375 ft 316 kts 237°
2026-04-30 10:05 -37.56073 145.44864 11877 ft 312 kts 237°
2026-04-30 10:06 -37.57340 145.42675 11385 ft 306 kts 237°
2026-04-30 10:06 -37.58584 145.40525 10902 ft 300 kts 237°
2026-04-30 10:06 -37.59800 145.38425 10430 ft 294 kts 237°
2026-04-30 10:06 -37.60990 145.36368 9925 ft 288 kts 237°
2026-04-30 10:07 -37.62162 145.34343 9407 ft 283 kts 238°
2026-04-30 10:07 -37.63286 145.32403 9263 ft 264 kts 238°
2026-04-30 10:07 -37.64329 145.30601 9142 ft 244 kts 238°
2026-04-30 10:07 -37.65294 145.28936 9016 ft 225 kts 239°
2026-04-30 10:08 -37.66173 145.27421 9010 ft 202 kts 239°
2026-04-30 10:08 -37.66995 145.25989 8996 ft 205 kts 240°
2026-04-30 10:08 -37.67819 145.24541 8891 ft 202 kts 240°
2026-04-30 10:08 -37.68626 145.23134 8528 ft 195 kts 239°
2026-04-30 10:09 -37.69411 145.21771 8115 ft 193 kts 240°
2026-04-30 10:09 -37.70205 145.20384 7674 ft 198 kts 240°
2026-04-30 10:09 -37.71029 145.18941 7143 ft 206 kts 239°
2026-04-30 10:09 -37.71885 145.17447 6612 ft 212 kts 239°
2026-04-30 10:10 -37.72750 145.15945 6296 ft 205 kts 239°
2026-04-30 10:10 -37.73560 145.14552 6087 ft 195 kts 240°
2026-04-30 10:10 -37.74349 145.13188 5839 ft 189 kts 241°
2026-04-30 10:10 -37.75119 145.11848 5590 ft 190 kts 241°
2026-04-30 10:11 -37.75897 145.10484 5339 ft 191 kts 241°
2026-04-30 10:11 -37.76677 145.09118 5093 ft 192 kts 241°
2026-04-30 10:11 -37.77462 145.07748 4840 ft 192 kts 242°
2026-04-30 10:11 -37.78250 145.06368 4591 ft 196 kts 241°
2026-04-30 10:12 -37.79040 145.04986 4345 ft 196 kts 241°
2026-04-30 10:12 -37.79835 145.03598 4095 ft 195 kts 241°
2026-04-30 10:12 -37.80635 145.02202 3861 ft 195 kts 241°
2026-04-30 10:12 -37.81336 145.00776 3606 ft 186 kts 254°
2026-04-30 10:13 -37.81667 144.99230 3366 ft 182 kts 266°
2026-04-30 10:13 -37.81924 144.97657 3115 ft 183 kts 265°
2026-04-30 10:13 -37.82197 144.96086 3020 ft 183 kts 265°
2026-04-30 10:13 -37.82475 144.94508 2987 ft 184 kts 265°
2026-04-30 10:14 -37.82688 144.92915 2862 ft 182 kts 268°
2026-04-30 10:14 -37.82883 144.91336 2714 ft 181 kts 269°
2026-04-30 10:14 -37.83159 144.88200 2613 ft 177 kts 289°
2026-04-30 10:15 -37.82551 144.86965 2621 ft 164 kts 328°
2026-04-30 10:15 -37.81519 144.86500 2635 ft 157 kts 353°
2026-04-30 10:15 -37.80425 144.86327 2638 ft 158 kts 353°
2026-04-30 10:15 -37.79371 144.86136 2539 ft 142 kts 353°
2026-04-30 10:16 -37.78408 144.85952 2431 ft 141 kts 352°
2026-04-30 10:16 -37.77430 144.85765 2282 ft 142 kts 352°
2026-04-30 10:16 -37.76466 144.85581 1957 ft 136 kts 352°
2026-04-30 10:17 -37.74610 144.85229 1340 ft 138 kts 353°
2026-04-30 10:17 -37.72608 144.84831 1005 ft 151 kts 352°
2026-04-30 10:17 -37.71564 144.84627 843 ft 151 kts 353°
2026-04-30 10:18 -37.70560 144.84464 658 ft 142 kts 354°
2026-04-30 10:18 -37.69607 144.84288 487 ft 135 kts 352°
2026-04-30 10:18 -37.68685 144.84115 381 ft 139 kts 353°
2026-04-30 10:19 -37.67227 144.83846 376 ft 39 kts 352°
2026-04-30 10:19 -37.67117 144.83836 379 ft 15 kts 359°
2026-04-30 10:19 -37.67010 144.83842 381 ft 16 kts
2026-04-30 10:19 -37.66933 144.83867 383 ft 9 kts 18°
2026-04-30 10:20 -37.66906 144.83879 383 ft 4 kts 20°
2026-04-30 10:20 -37.66809 144.83930 383 ft 10 kts 24°
2026-04-30 10:20 -37.66745 144.83979 382 ft 12 kts 44°
2026-04-30 10:21 -37.66716 144.84087 379 ft 16 kts 97°
2026-04-30 10:21 -37.66785 144.84197 374 ft 18 kts 168°
2026-04-30 10:21 -37.66918 144.84216 373 ft 21 kts 174°
2026-04-30 10:21 -37.67043 144.84245 370 ft 19 kts 170°
2026-04-30 10:22 -37.67176 144.84273 367 ft 21 kts 171°
2026-04-30 10:22 -37.67320 144.84296 364 ft 22 kts 174°
2026-04-30 10:22 -37.67449 144.84316 363 ft 11 kts 174°
2026-04-30 10:22 -37.67471 144.84338 360 ft 6 kts 112°
2026-04-30 10:23 -37.67470 144.84439 358 ft 11 kts 84°
2026-04-30 10:23 -37.67457 144.84543 356 ft 12 kts 81°
2026-04-30 10:23 -37.67446 144.84641 354 ft 10 kts 82°
2026-04-30 10:23 -37.67436 144.84717 359 ft 8 kts 90°
2026-04-30 10:24 -37.67467 144.84737 359 ft 6 kts 175°
2026-04-30 10:24 -37.67525 144.84742 351 ft 10 kts 172°
2026-04-30 10:24 -37.67536 144.84744 359 ft 0 kts 172°